#timestamp,LO_Frequency,Hit,StdDev 
1458014415.3,286046995.6,N
1458014435.2,286046997.5,N
1458014455.9,286046997.6,N
1458014475.7,286046994.5,N
1458014495.6,286046994.8,N
1458014515.4,286046994.4,N
1458014535.2,286046994.1,N
1458014555.0,286046996.4,N
1458014556.0,286046996.4,N
1458014575.8,286046993.2,N
1458014595.6,286046988.9,Y
1458014615.5,286046995.7,P
1458014635.3,286046995.3,P
1458014655.1,286046995.2,P
1458014675.9,286046991.8,Y
1458014695.7,286046993.8,P
1458014715.5,286046991.7,P
1458014735.3,286046994.5,P
1458014755.2,286046996.2,N
1458014775.0,286046994.8,Y
1458014775.9,286046994.8,P
1458014795.8,286046996.6,P
1458014815.6,286046997.5,N
1458014835.4,286046993.3,Y
1458014855.3,286046999.2,P
1458014875.1,286046995.0,N
1458014876.0,286046995.0,N
1458014895.8,286046994.3,Y
1458014915.7,286046998.0,P
1458014935.5,286046998.2,N
1458014955.3,286047002.4,N
1458014975.2,286046999.5,N
1458014995.9,286046998.5,N
1458015015.7,286047000.9,N
1458015035.5,286046998.7,N
1458015055.4,286046996.6,N
1458015075.2,286046995.7,N
1458015095.0,286046999.1,N
1458015095.9,286046999.1,N
1458015115.8,286046996.5,N
1458015135.6,286046999.8,N
1458015155.4,286047003.7,N
1458015175.3,286047003.5,N
1458015195.1,286047004.6,N
1458015196.0,286047004.6,N
1458015215.8,286047007.6,N
1458015235.7,286047007.5,N
1458015255.5,286047006.3,N
1458015275.3,286047006.5,N
1458015295.2,286047008.0,N
1458015315.9,286047011.4,N
1458015335.7,286047012.3,N
1458015355.5,286047009.7,N
1458015375.7,286047011.2,N
1458015395.5,286047009.4,N
1458015415.3,286047010.9,N
1458015435.2,286047010.2,N
1458015455.9,286047008.1,N
1458015475.7,286047007.9,N
1458015495.5,286047008.8,N
1458015515.4,286047010.2,N
1458015535.2,286047007.4,N
1458015555.0,286047007.3,N
1458015555.9,286047007.3,N
1458015575.8,286047009.1,N
1458015595.6,286047006.2,N
1458015615.4,286047003.5,N
1458015635.3,286047005.0,N
1458015655.1,286047003.0,N
1458015675.8,286047005.3,N
1458015695.7,286047005.7,N
1458015715.5,286047004.9,N
1458015735.3,286047005.8,N
1458015755.2,286047005.6,N
1458015775.9,286047000.2,N
1458015795.7,286047000.2,N
1458015815.6,286047002.8,N
1458015835.4,286047001.5,N
1458015855.2,286046999.8,N
1458015875.1,286047001.9,N
1458015876.0,286047001.9,N
1458015895.8,286047003.8,N
1458015915.6,286047001.9,N
1458015935.5,286047005.6,N
1458015955.3,286046999.9,N
1458015975.1,286046999.8,N
1458015995.8,286047001.0,N
1458016015.7,286046996.5,N
1458016035.5,286046998.3,N
1458016055.3,286046999.6,N
1458016075.2,286046999.0,N
1458016095.0,286047000.8,N
1458016095.9,286047000.8,N
1458016115.7,286047001.2,N
1458016135.6,286046999.1,N
1458016155.4,286047000.9,N
1458016175.2,286046997.3,N
1458016195.1,286046999.7,N
1458016196.0,286046999.7,N
1458016215.8,286047002.7,N
1458016235.6,286047003.4,N
1458016255.5,286047003.7,N
1458016275.3,286046999.8,N
1458016295.1,286047002.7,N
1458016315.9,286047004.4,N
1458016335.7,286047006.0,N
1458016355.5,286047002.9,N
1458016375.4,286047007.0,Y
1458016395.2,286047005.2,P
1458016415.0,286047005.8,N
1458016415.9,286047005.8,N
1458016435.8,286047005.9,Y
1458016455.6,286047004.7,P
1458016475.4,286047005.2,P
1458016495.3,286047007.4,P
1458016515.1,286047008.6,Y
1458016516.0,286047008.6,P
1458016535.8,286047000.9,N
1458016555.7,286046999.7,N
1458016575.5,286047005.4,N
1458016595.3,286047007.2,N
1458016615.2,286047008.5,N
1458016635.9,286047007.8,N
1458016655.7,286047008.8,N
1458016675.6,286047011.7,Y
1458016695.4,286047007.1,P
1458016715.2,286047004.9,P
1458016735.0,286047004.2,P
1458016736.0,286047004.2,Y
1458016755.8,286047000.8,P
1458016775.6,286047002.8,N
1458016795.5,286046998.4,N
1458016815.3,286047001.0,N
1458016835.1,286047000.7,N
1458016855.8,286046997.7,N
1458016875.7,286046996.5,N
1458016895.5,286046997.7,N
1458016915.3,286046995.3,N
1458016935.2,286046993.4,N
1458016955.9,286046992.2,N
1458016975.7,286046990.6,N
1458016995.6,286046988.5,N
1458017015.4,286046992.5,N
1458017035.2,286046993.1,N
1458017055.1,286046989.4,N
1458017056.0,286046989.4,N
1458017075.8,286046986.6,N
1458017095.6,286046985.3,N
1458017115.5,286046986.1,N
1458017135.3,286046986.4,N
1458017155.1,286046986.5,N
1458017175.8,286046983.8,N
1458017195.7,286046984.3,N
1458017215.5,286046982.6,N
1458017235.3,286046982.7,N
1458017255.2,286046983.9,N
1458017275.9,286046985.9,N
1458017295.7,286046987.5,N
1458017315.6,286046987.1,N
1458017335.4,286046988.3,N
1458017355.2,286046983.7,N
1458017375.1,286046985.0,N
1458017376.0,286046985.0,N
1458017395.8,286046984.4,Y
1458017415.6,286046992.1,P
1458017435.5,286046991.6,P
1458017455.3,286046986.5,P
1458017475.1,286046988.0,Y
1458017495.9,286047002.7,P
1458017515.7,286047003.2,N
1458017535.5,286047004.5,N
1458017555.4,286047005.5,N
1458017575.2,286047003.7,N
1458017595.0,286047004.3,N
1458017595.9,286047004.3,N
1458017615.8,286047001.5,N
1458017635.6,286047001.9,N
1458017655.4,286047002.9,N
1458017675.2,286047003.1,N
1458017695.1,286047004.1,N
1458017696.0,286047004.1,N
1458017715.8,286047004.4,N
1458017735.6,286047001.1,N
1458017755.5,286046999.2,N
1458017775.3,286046999.6,N
1458017795.1,286046994.1,N
1458017815.9,286046996.4,N
1458017835.7,286046995.5,N
1458017855.5,286046997.2,N
1458017875.4,286046996.7,N
1458017895.2,286046995.0,N
1458017915.0,286046997.0,N
1458017915.9,286046997.0,N
1458017935.8,286047000.6,N
1458017955.6,286047002.0,N
1458017975.4,286047002.1,N
1458017995.3,286047006.0,N
